[[{"header":{"parameterUnit":"m.s-1","parameterCategory":1,"la1":30.2991,"la2":30.254,"lo1":-89.0895,"lo2":-89.0444,"dy":0.0017,"dx":0.0017,"nx":28,"ny":28,"refTime":"2023-08-22T09:00:00:Z","depth":0,"parameterNumber":2,"parameterNumberName":"U-component_of_WINDS"},"data":[0,0,0,0,0,0,0,0,0,0,0,0,0,0,0,0,0,0,0,0,0,0,0,0,0,0,0,0,0,0,0,0,0,0,0,0,0,0,0,0,0,0,0,0,0,0,0,0,0,0,0,0,0,0,0,0,0,0,2.558,2.5581,0,2.563,2.5631,2.5631,2.5575,2.5573,2.5571,2.5569,2.562,2.5623,2.5626,0,0,0,0,0,0,0,0,0,0,0,0,0,2.5437,2.544,2.558,2.5581,2.5582,2.563,2.5631,2.5632,2.5576,2.5573,2.5571,2.5568,2.5619,2.5622,2.5626,0,0,0,0,0,0,0,0,0,0,0,0,0,2.5495,2.5441,2.558,2.556,2.5558,2.563,2.5631,2.5632,2.5576,2.5573,2.557,2.5567,2.5617,2.5622,2.5627,2.5721,0,0,2.5642,2.5644,0,0,0,0,0,0,0,0,2.5492,2.55,2.5562,2.5561,2.556,2.5593,2.5599,2.5662,2.5577,2.5569,2.5569,2.5565,2.5613,2.5619,2.5635,2.5724,2.5726,2.5643,2.5646,2.5648,2.5649,0,0,0,0,0,0,0,2.5488,2.5498,2.56,2.5563,2.5562,2.5548,2.5553,2.5611,2.5609,2.557,2.5566,2.5573,2.5612,2.563,2.5636,2.5727,2.5643,2.5647,2.565,2.5652,2.5899,2.5902,0,0,0,0,0,0,2.5486,2.5495,2.5598,2.5601,2.5517,2.5553,2.5558,2.5586,2.5608,2.5608,2.5575,2.557,2.5623,2.563,2.5637,2.5751,2.5648,2.5652,2.5655,2.5895,2.5899,2.5903,0,0,0,0,0,0,2.5483,2.5496,2.5596,2.5547,2.5559,2.5559,2.559,2.5588,2.5606,2.5612,2.5611,2.5594,2.5621,2.563,2.5702,2.5752,2.5655,2.5659,2.5891,2.5896,2.5901,2.5979,0,0,0,0,0,0,2.5479,2.5495,2.5531,2.5548,2.5562,2.566,2.5593,2.5592,2.5615,2.5608,2.5629,2.563,2.5619,2.5695,2.5707,2.5757,2.5663,2.5886,2.5893,2.59,2.5972,2.5986,2.5998,0,0,0,0,0,2.5474,2.555,2.5533,2.5545,2.5606,2.5663,2.5671,2.5657,2.5619,2.5656,2.566,2.5629,2.5745,2.5702,2.5715,2.5768,2.5883,2.5891,2.5899,2.5966,2.5983,2.5998,0,0,0,0,0,0,2.5537,2.5551,2.5533,2.5616,2.5639,2.5653,2.5698,2.5676,2.5709,2.5702,2.5683,2.5688,2.5765,2.5773,2.5726,2.5862,2.5808,2.5819,2.5854,2.587,2.5884,2.588,2.5667,0,0,0,0,0,2.5561,2.5605,2.5616,2.5688,2.5701,2.5698,2.5722,2.571,2.5732,2.5742,2.5751,2.5774,2.5816,2.5843,2.5882,2.5973,2.5977,2.6016,2.6029,2.604,2.605,2.6101,2.6118,2.593,2.5929,2.5929,0,0,2.5609,2.5623,2.5652,2.5701,2.5717,2.5765,2.5706,2.5758,2.5793,2.5749,2.5818,2.5826,2.5851,2.5933,2.5969,2.5942,2.6103,2.605,2.6059,2.6063,2.6111,2.6129,2.6145,2.5935,2.5934,2.5933,0,0,2.5723,2.5737,2.58,2.5818,2.5844,2.5842,2.5857,2.5876,2.588,2.5949,2.5917,2.5959,2.6031,2.6051,2.607,2.6194,2.6168,2.6207,2.6277,2.6327,2.6342,2.6355,2.6401,2.6418,2.6217,2.6217,2.6217,0,2.5781,2.5851,2.5835,2.5891,2.5914,2.5877,2.5942,2.596,2.5997,2.6014,2.5983,2.6074,2.6088,2.6176,2.6206,2.6223,2.6241,2.6205,2.6341,2.6354,2.6366,2.641,2.6427,2.6222,2.6221,2.6221,2.6221,0,2.5921,2.5971,2.6019,2.6057,2.6085,2.6145,2.6139,2.617,2.6156,2.6158,2.6229,2.6245,2.6287,2.6307,2.6293,2.6394,2.6376,2.6344,2.6289,2.6389,2.643,2.6447,2.6229,2.6227,2.6226,2.6224,0,0,2.6075,2.6105,2.6123,2.6141,2.6168,2.6206,2.6265,2.6306,2.6334,2.6361,2.6411,2.6474,2.6445,2.6467,2.6455,2.6499,2.6599,2.6461,2.6462,2.6488,2.6713,2.6738,2.6758,2.6582,2.6585,2.6588,2.6712,0,2.619,2.6292,2.6281,2.6379,2.6425,2.6392,2.6444,2.6466,2.647,2.6511,2.6514,2.656,2.6517,2.6531,2.6572,2.6578,2.6644,2.6569,2.6629,2.6632,2.6625,2.6779,2.6805,2.6921,2.6727,2.673,2.6732,0,2.6338,2.6373,2.6475,2.6497,2.6516,2.6563,2.6601,2.664,2.6666,2.6665,2.6692,2.6673,2.6734,2.6677,2.6761,2.671,2.6734,2.6741,2.6745,2.6751,2.6688,2.679,2.6958,2.6976,2.6757,2.6755,2.6753,0,2.6443,2.6514,2.6585,2.6601,2.6628,2.6662,2.6674,2.6697,2.6724,2.6758,2.6775,2.6816,2.6838,2.687,2.6864,2.6823,2.695,2.6893,2.6953,2.6953,2.6981,2.698,2.7157,2.6995,2.6995,2.6995,2.6994,0,2.6573,2.6638,2.6632,2.6676,2.6748,2.6735,2.6807,2.6815,2.6836,2.6882,2.6855,2.6899,2.6887,2.6931,2.6926,2.6997,2.7007,2.701,2.7008,2.7013,2.7013,2.7029,2.7021,2.6999,2.6998,2.6997,2.6997,0,2.6702,2.67,2.6776,2.6796,2.6803,2.6855,2.6872,2.6914,2.6916,2.6975,2.6988,2.6991,2.7042,2.7038,2.7094,2.7091,2.718,2.7168,2.7172,2.717,2.723,2.7225,2.7425,2.7451,2.7271,2.7273,2.7274,0,2.6786,2.6835,2.6861,2.689,2.6905,2.6952,2.698,2.6969,2.7,2.7034,2.7072,2.712,2.7158,2.724,2.7248,2.7291,2.7281,2.7348,2.7287,2.7292,2.7284,2.7282,2.7288,2.736,2.7362,2.7364,2.7365,0,2.6936,2.6933,2.6974,2.7016,2.705,2.7082,2.7112,2.7137,2.713,2.7166,2.7217,2.7247,2.7305,2.7353,2.7395,2.7409,2.7387,2.7384,2.7401,2.7407,2.7408,2.741,2.7206,2.738,2.7378,2.7377,2.7376,2.7376,2.7046,2.7089,2.7114,2.7162,2.7183,2.7212,2.7253,2.7261,2.7304,2.7351,2.7342,2.74,2.7427,2.7481,2.7499,2.7545,2.7521,2.7545,2.7551,2.7557,2.7565,2.74,2.7553,2.7552,2.7552,2.7551,2.7551,0,2.7196,2.7211,2.7255,2.7298,2.7336,2.7311,2.7343,2.7377,2.7428,2.7455,2.7493,2.7554,2.7601,2.7614,2.766,2.7694,2.7686,2.7707,2.7705,2.7709,2.7583,2.7565,2.7713,2.7713,2.7713,2.7713,2.7713,2.7713,2.7279,2.7351,2.7352,2.7435,2.745,2.7507,2.7528,2.7555,2.7576,2.7645,2.7685,2.7693,2.7714,2.7762,2.7805,2.7808,2.7827,2.7853,2.7851,2.7734,2.7717,2.7702,2.7685,2.7856,2.7857,2.7974,2.7975,2.7976]},{"header":{"parameterUnit":"m.s-1","parameterCategory":1,"la1":30.2991,"la2":30.254,"lo1":-89.0895,"lo2":-89.0444,"dy":0.0017,"dx":0.0017,"nx":28,"ny":28,"refTime":"2023-08-22T09:00:00:Z","depth":0,"parameterNumber":3,"parameterNumberName":"V-component_of_WINDS"},"data":[0,0,0,0,0,0,0,0,0,0,0,0,0,0,0,0,0,0,0,0,0,0,0,0,0,0,0,0,0,0,0,0,0,0,0,0,0,0,0,0,0,0,0,0,0,0,0,0,0,0,0,0,0,0,0,0,0,0,-2.8294,-2.8295,0,-2.8375,-2.8376,-2.8377,-2.8365,-2.8363,-2.8362,-2.8361,-2.8443,-2.8447,-2.845,0,0,0,0,0,0,0,0,0,0,0,0,0,-2.8129,-2.8132,-2.8294,-2.8295,-2.8296,-2.8375,-2.8376,-2.8377,-2.8365,-2.8363,-2.8362,-2.836,-2.8442,-2.8446,-2.8451,0,0,0,0,0,0,0,0,0,0,0,0,0,-2.8204,-2.8133,-2.8294,-2.83,-2.8301,-2.8375,-2.8376,-2.8378,-2.8365,-2.8363,-2.8361,-2.8359,-2.8441,-2.8446,-2.8451,-2.8525,0,0,-2.8467,-2.8469,0,0,0,0,0,0,0,0,-2.82,-2.821,-2.8298,-2.8299,-2.8301,-2.8358,-2.8348,-2.8427,-2.8366,-2.8341,-2.8361,-2.8358,-2.8417,-2.8424,-2.8443,-2.8529,-2.8532,-2.8468,-2.8471,-2.8473,-2.8475,0,0,0,0,0,0,0,-2.8195,-2.8207,-2.8326,-2.8299,-2.8301,-2.8298,-2.8306,-2.8363,-2.8389,-2.8343,-2.8342,-2.8352,-2.8417,-2.8438,-2.8445,-2.8534,-2.8468,-2.8472,-2.8475,-2.8477,-2.8684,-2.8686,0,0,0,0,0,0,-2.8188,-2.8203,-2.8324,-2.8329,-2.8244,-2.8303,-2.8312,-2.8342,-2.8389,-2.8394,-2.8354,-2.8351,-2.8431,-2.8439,-2.8448,-2.8538,-2.8473,-2.8478,-2.8481,-2.8682,-2.8684,-2.8687,0,0,0,0,0,0,-2.8185,-2.8199,-2.832,-2.8266,-2.8281,-2.8308,-2.8341,-2.8344,-2.8366,-2.8397,-2.8401,-2.8371,-2.8429,-2.8441,-2.8506,-2.854,-2.848,-2.8485,-2.8679,-2.8682,-2.8686,-2.8717,0,0,0,0,0,0,-2.818,-2.8198,-2.8226,-2.8266,-2.8284,-2.8377,-2.8343,-2.8347,-2.8375,-2.8372,-2.8414,-2.8419,-2.8429,-2.8498,-2.8511,-2.8547,-2.8489,-2.8676,-2.868,-2.8685,-2.8713,-2.8721,-2.8728,0,0,0,0,0,-2.8174,-2.8231,-2.8227,-2.8242,-2.832,-2.8379,-2.8389,-2.8399,-2.8378,-2.8406,-2.8426,-2.8418,-2.8535,-2.8505,-2.852,-2.8557,-2.8674,-2.8679,-2.8684,-2.871,-2.872,-2.8728,0,0,0,0,0,0,-2.8194,-2.8237,-2.8233,-2.8305,-2.8339,-2.8377,-2.8413,-2.8409,-2.8449,-2.8445,-2.8456,-2.8465,-2.8531,-2.8551,-2.8517,-2.8631,-2.8601,-2.861,-2.8616,-2.8625,-2.8633,-2.8627,-2.8494,0,0,0,0,0,-2.8207,-2.8252,-2.8287,-2.8347,-2.8364,-2.8386,-2.8412,-2.8417,-2.8452,-2.8466,-2.8491,-2.8525,-2.857,-2.8599,-2.8641,-2.8716,-2.8725,-2.8749,-2.8757,-2.8763,-2.877,-2.8811,-2.8822,-2.8704,-2.8704,-2.8704,0,0,-2.8234,-2.8263,-2.8291,-2.8352,-2.8378,-2.8425,-2.8398,-2.8448,-2.8482,-2.8473,-2.8537,-2.8556,-2.8595,-2.8666,-2.8698,-2.8684,-2.8804,-2.8769,-2.8774,-2.8778,-2.8818,-2.8829,-2.8839,-2.8708,-2.8707,-2.8707,0,0,-2.8307,-2.8333,-2.8387,-2.8414,-2.8454,-2.8469,-2.8481,-2.8521,-2.8533,-2.8597,-2.8592,-2.8633,-2.8709,-2.8737,-2.8762,-2.8846,-2.884,-2.886,-2.8899,-2.8939,-2.8949,-2.8957,-2.8987,-2.8998,-2.8867,-2.8867,-2.8867,0,-2.8336,-2.8405,-2.8415,-2.8465,-2.8492,-2.8487,-2.8541,-2.8567,-2.862,-2.8639,-2.8622,-2.8719,-2.8745,-2.8822,-2.8842,-2.8862,-2.8877,-2.8855,-2.8946,-2.8955,-2.8963,-2.8992,-2.9003,-2.8869,-2.8869,-2.8869,-2.8868,0,-2.8438,-2.8486,-2.8524,-2.8575,-2.8607,-2.8659,-2.8677,-2.8708,-2.871,-2.8726,-2.8791,-2.8822,-2.8871,-2.889,-2.8892,-2.8968,-2.8958,-2.8944,-2.8914,-2.8976,-2.9003,-2.9014,-2.8872,-2.8871,-2.8871,-2.887,0,0,-2.8525,-2.8581,-2.8595,-2.8618,-2.8663,-2.87,-2.8753,-2.8801,-2.8827,-2.8864,-2.8908,-2.8973,-2.896,-2.8988,-2.8994,-2.9029,-2.9094,-2.9011,-2.9012,-2.9026,-2.9179,-2.9189,-2.9202,-2.9091,-2.9093,-2.9095,-2.9176,0,-2.8602,-2.8694,-2.8705,-2.8787,-2.8831,-2.8827,-2.8873,-2.8905,-2.8922,-2.8962,-2.8981,-2.9027,-2.9007,-2.9024,-2.9058,-2.9079,-2.9125,-2.9073,-2.9132,-2.9134,-2.9122,-2.9216,-2.9227,-2.9302,-2.9187,-2.9188,-2.919,0,-2.8704,-2.8744,-2.883,-2.8869,-2.8888,-2.8929,-2.8974,-2.9013,-2.9049,-2.9059,-2.909,-2.9092,-2.9146,-2.9115,-2.9189,-2.9154,-2.9178,-2.9192,-2.9195,-2.9201,-2.9165,-2.9224,-2.9326,-2.9337,-2.9207,-2.9205,-2.9204,0,-2.8759,-2.8834,-2.8895,-2.8915,-2.8962,-2.8991,-2.9012,-2.9047,-2.9075,-2.9115,-2.9133,-2.9179,-2.9204,-2.9239,-2.9253,-2.9229,-2.9327,-2.9297,-2.9337,-2.9336,-2.9357,-2.9355,-2.9464,-2.9373,-2.9373,-2.9373,-2.9373,0,-2.8844,-2.8897,-2.8921,-2.8959,-2.9018,-2.903,-2.9088,-2.9108,-2.9139,-2.9181,-2.9181,-2.922,-2.9236,-2.9278,-2.9289,-2.9349,-2.9361,-2.937,-2.9372,-2.937,-2.9369,-2.9386,-2.9381,-2.9376,-2.9375,-2.9375,-2.9374,0,-2.8915,-2.8933,-2.9,-2.9039,-2.905,-2.9092,-2.9126,-2.9162,-2.9178,-2.9231,-2.9244,-2.927,-2.9319,-2.9337,-2.9397,-2.9404,-2.9474,-2.9472,-2.9462,-2.9462,-2.9501,-2.9497,-2.9625,-2.9642,-2.954,-2.9541,-2.9542,0,-2.8968,-2.9009,-2.9052,-2.908,-2.9102,-2.9147,-2.9176,-2.9189,-2.922,-2.9265,-2.9296,-2.9345,-2.9385,-2.9464,-2.9488,-2.9534,-2.9533,-2.9575,-2.954,-2.9537,-2.9534,-2.9531,-2.9536,-2.9581,-2.9582,-2.9583,-2.9584,0,-2.906,-2.9067,-2.9108,-2.9154,-2.9188,-2.9225,-2.926,-2.9283,-2.9302,-2.9336,-2.9386,-2.9417,-2.9479,-2.9527,-2.9575,-2.9596,-2.9594,-2.9595,-2.9606,-2.9604,-2.9596,-2.9601,-2.9479,-2.9592,-2.9591,-2.959,-2.959,-2.9589,-2.9123,-2.9159,-2.9196,-2.9242,-2.927,-2.9303,-2.934,-2.9361,-2.9403,-2.9454,-2.9459,-2.9514,-2.955,-2.9613,-2.9637,-2.968,-2.9669,-2.9685,-2.969,-2.9694,-2.9697,-2.959,-2.9689,-2.9688,-2.9688,-2.9688,-2.9688,0,-2.9215,-2.9238,-2.9281,-2.933,-2.9367,-2.9361,-2.94,-2.9431,-2.9479,-2.9513,-2.9553,-2.9611,-2.9658,-2.9686,-2.9734,-2.9763,-2.9763,-2.9775,-2.9773,-2.9778,-2.9704,-2.9689,-2.9774,-2.9774,-2.9774,-2.9774,-2.9774,-2.9774,-2.9267,-2.9328,-2.9339,-2.9414,-2.9437,-2.949,-2.9513,-2.9543,-2.957,-2.9635,-2.9675,-2.9693,-2.9725,-2.9775,-2.9818,-2.9825,-2.9843,-2.9856,-2.9862,-2.9792,-2.9783,-2.9775,-2.9761,-2.986,-2.986,-2.9933,-2.9934,-2.9934]}]]